User: anonymous   Login
Location: Ermatingen
(47.6706°N, 9.0857°E)
Time: 14:25:33
(UTC+00:00)
Language:

Cosmos 1428 Rocket - Orbit

View from above orbital plane
View from above orbital plane
View from above satellite
View from above satellite

Ground track
Ground track

The orbit data is extracted from the following two-line orbital elements,

1 13758U 83001B   20333.57277171 +.00000000 +00000-0 -14850-4 0  9997
2 13758 082.9120 084.4103 0028188 047.6838 312.6702 13.78791668905079
Epoch (UTC): 28 November 2020 13:44:47
Eccentricity: 0.0028188
inclination: 82.9120°
perigee height: 947 km
apogee height: 989 km
right ascension of ascending node: 84.4103°
argument of perigee: 47.6838°
revolutions per day: 13.78791668
mean anomaly at epoch: 312.6702°
orbit number at epoch: 90507

The dashed part of the orbit path shows where the satellite is in the earth's shadow,  

DLR